Regional Weather Roundup
Issued by NWS State College, PA

Home | Current Version | Previous Version | Text Only | Print | Product List | Glossary On
Versions: 1 2 3 4 5 6 7 8 9 10 11 12 13 14 15 16 17 18 19 20 21 22 23 24 25 26 27 28 29 30 31 32 33 34 35 36 37 38 39 40 41 42 43 44 45 46 47 48 49 50
019
ASUS41 KCTP 292103
RWRCTP

REGIONAL WEATHER ROUNDUP
NATIONAL WEATHER SERVICE STATE COLLEGE PA
500 PM EDT SUN MAY 29 2016

Note: "fair" indicates few or no clouds below 12,000 feet with no
significant weather and/or obstructions to visibility.

* = STATION THAT DOES NOT REPORT PRECIPITATION /E.G. RAIN...SNOW...ETC/
    THUNDER OR FOG.

PAZ002>004-007>009-013>016-020>023-029>032-292200-
WESTERN PENNSYLVANIA

CITY           SKY/WX    TMP DP  RH WIND       PRES   REMARKS
ERIE           CLOUDY    79  65  62 NW7       30.01F
MEADVILLE      CLOUDY    76  66  71 SW8       30.06F
FRANKLIN*      CLOUDY    73  63  68 S12G21    30.12R THUNDER
NEW CASTLE     FAIR      74  61  63 S8        30.08S
BEAVER COUNTY  NOT AVBL
BUTLER*        CLOUDY    72  57  60 W10G16    30.13R
PITTSBURGH INT CLOUDY    76  60  57 NW10      30.09R
PITTSBURGH     PTSUNNY   71  59  65 S6        30.09S
INDIANA*       MOSUNNY   64  63  94 E5        30.16F
LATROBE        LGT RAIN  66  66 100 SE9       30.13F
WASHINGTON CO* CLOUDY    79  66  65 W5        30.09S
$$

PAZ004>006-010>012-017>019-024>028-033>037-041-042-045-046-049>053-292200-
CENTRAL PENNSYLVANIA

CITY           SKY/WX    TMP DP  RH WIND       PRES   REMARKS
BRADFORD       PTSUNNY   76  63  64 S6        30.10F
DUBOIS         CLOUDY    74  66  76 SW7       30.10S
CLEARFIELD     CLOUDY    69  64  84 S8        30.11R
JOHNSTOWN      LGT RAIN  65  57  75 NW10      30.15F
ALTOONA        CLOUDY    78  61  55 SW12      30.11S
STATE COLLEGE  SUNNY     79  61  53 S9        30.07F
WILLIAMSPORT   CLOUDY    86  60  41 SE15      30.01F
SELINSGROVE    CLOUDY    85  58  39 S7        30.04F
FT INDIANTOWN  MOSUNNY   85  56  37 SW8       30.04F
CAPITAL CITY   CLOUDY    85  57  38 SW9       30.04F
HARRISBURG     CLOUDY    85  60  42 S7        30.03F
YORK           CLOUDY    83  63  50 VRB5      30.05F
$$

PAZ038>040-043-044-047-048-054-055-060>062-067>071-292200-
EASTERN PENNSYLVANIA

CITY           SKY/WX    TMP DP  RH WIND       PRES   REMARKS
SCRANTON       CLOUDY    86  61  42 S10       30.05S
MOUNT POCONO   PTSUNNY   79  59  50 S8        30.12S
ALLENTOWN      SUNNY     89  58  34 SW9       30.05F
QUAKERTOWN*    CLEAR     86  50  28 SW7       30.07F
READING        MOSUNNY   87  53  31 SW10      30.04F
LANCASTER      MOSUNNY   84  61  45 SW9       30.05F
COATESVILLE    PTCLDY    82  64  54 VRB6G15   30.08F
POTTSTOWN      SUNNY     85  60  42 S10       30.07F
BLUE BELL      MOSUNNY   84  63  48 SW8       30.05F
DOYLESTOWN     MOSUNNY   84  48  28 VRB7      30.05F
WILLOW GROVE   NOT AVBL
NORTH PHILA    MOSUNNY   86  64  47 SW12      30.06F
PHILADELPHIA   CLOUDY    84  65  52 S10       30.06F
$$




USA.gov is the U.S. government's official web portal to all federal, state and local government web resources and services.